#timestamp,LO_Frequency,Hit 
1505289615.6,286046999.1,N
1505289635.4,286047000.3,N
1505289655.2,286046999.0,N
1505289675.1,286046999.3,N
1505289676.0,286046999.3,N
1505289695.8,286046999.3,N
1505289715.6,286046998.2,N
1505289735.5,286046997.8,N
1505289755.3,286047002.3,N
1505289775.1,286047001.5,N
1505289795.9,286047000.3,N
1505289815.7,286046999.6,N
1505289835.5,286046996.9,N
1505289855.4,286046997.0,N
1505289875.2,286047002.7,N
1505289895.0,286047002.8,N
1505289895.9,286047002.8,N
1505289915.8,286047002.5,N
1505289935.6,286046998.1,N
1505289955.4,286046997.2,N
1505289975.2,286046995.1,N
1505289995.1,286046996.0,N
1505289996.0,286046996.0,N
1505290015.8,286046993.3,P
1505290035.7,286046992.9,N
1505290055.5,286046991.5,N
1505290075.3,286046988.9,P
1505290095.2,286046994.6,N
1505290115.9,286046995.9,N
1505290135.7,286046992.5,N
1505290155.6,286046991.9,P
1505290175.4,286047004.1,P
1505290195.2,286047007.4,N
1505290215.1,286047009.2,N
1505290216.0,286047009.2,N
1505290235.8,286047009.3,N
1505290255.6,286047006.2,N
1505290275.5,286047012.3,N
1505290295.3,286047008.2,N
1505290315.1,286047009.9,N
1505290335.8,286047010.4,N
1505290355.7,286047012.4,N
1505290375.5,286047007.8,N
1505290395.3,286047008.8,N
1505290415.2,286047007.1,N
1505290435.9,286047007.8,N
1505290455.7,286047008.1,N
1505290475.6,286047010.8,N
1505290495.4,286047007.9,N
1505290515.2,286047006.8,N
1505290535.1,286047010.3,N
1505290536.0,286047010.3,N
1505290555.8,286047009.9,N
1505290575.6,286047012.4,N
1505290595.5,286047009.7,N
1505290615.3,286047008.7,N
1505290635.1,286047006.3,N
1505290655.8,286047010.1,N
1505290675.7,286047011.7,N
1505290695.5,286047011.6,N
1505290715.3,286047010.6,N
1505290735.2,286047010.2,P
1505290755.0,286047000.5,N
1505290755.9,286047000.5,N
1505290775.8,286047002.1,N
1505290795.6,286047004.4,N
1505290815.4,286047001.1,N
1505290835.2,286047000.3,N
1505290855.1,286046998.2,N
1505290856.0,286046998.2,N
1505290875.8,286046997.4,N
1505290895.6,286046995.9,N
1505290915.5,286046997.7,N
1505290935.3,286046998.1,N
1505290955.1,286047000.5,N
1505290975.9,286047004.1,N
1505290995.7,286047001.8,N
1505291015.5,286047002.3,N
1505291035.4,286046999.7,N
1505291055.2,286047001.0,N
1505291075.0,286046999.4,N
1505291075.9,286046999.4,N
1505291095.8,286046997.1,N
1505291115.6,286046999.2,N
1505291135.4,286047000.9,N
1505291155.3,286047000.1,N
1505291175.1,286046998.6,N
1505291176.0,286046998.6,N
1505291195.8,286047000.2,N
1505291215.7,286046998.1,N
1505291235.5,286046995.8,N
1505291255.3,286046995.8,N
1505291275.1,286046999.4,N
1505291295.9,286046998.6,N
1505291315.7,286046998.9,N
1505291335.5,286047000.0,N
1505291355.4,286046997.8,N
1505291375.2,286046996.9,N
1505291395.0,286046994.1,P
1505291396.0,286046994.1,N
1505291415.8,286046995.3,N
1505291435.6,286046993.9,P
1505291455.5,286047002.6,N
1505291475.3,286047002.6,N
1505291495.1,286047003.5,N
1505291515.9,286047004.4,N
1505291535.7,286047002.6,N
1505291555.5,286047000.6,N
1505291575.3,286046998.1,N
1505291595.2,286046996.7,N
1505291615.0,286046997.2,N
1505291615.9,286046997.2,N
1505291635.7,286046996.6,N
1505291655.6,286047001.5,N
1505291675.4,286047002.6,N
1505291695.2,286046998.5,N
1505291715.1,286046998.0,N
1505291716.0,286046998.0,N
1505291735.8,286046992.8,N
1505291755.6,286046991.5,N
1505291775.5,286046991.5,N
1505291795.3,286046993.0,N
1505291815.1,286046995.8,N
1505291835.9,286046999.1,N
1505291855.7,286047002.7,N
1505291875.5,286047000.3,N
1505291895.4,286047000.5,N
1505291915.2,286047004.2,N
1505291935.0,286047006.6,N
1505291935.9,286047006.6,N
1505291955.8,286047003.9,N
1505291975.6,286047004.4,N
1505291995.4,286046999.8,N
1505292015.3,286046999.5,N
1505292035.1,286046993.8,N
1505292036.0,286046993.8,N
1505292055.8,286046997.6,N
1505292075.6,286046997.9,N
1505292095.5,286046995.7,N
1505292115.3,286046998.8,N
1505292135.1,286047000.5,N
1505292155.9,286047001.9,N
1505292175.7,286047001.7,N
1505292195.5,286046999.7,N
1505292215.4,286047001.3,N
1505292235.2,286047005.6,N
1505292255.0,286047008.8,N
1505292255.9,286047008.8,N
1505292275.8,286047013.4,N
1505292295.6,286047008.1,N
1505292315.4,286047010.0,N
1505292335.3,286047010.3,N
1505292355.1,286047008.1,N
1505292356.0,286047008.1,N
1505292375.8,286047008.6,N
1505292395.7,286047006.7,N
1505292415.5,286047005.6,N
1505292435.3,286047003.7,N
1505292455.2,286047004.3,N
1505292475.9,286047004.1,N
1505292495.7,286047002.6,N
1505292515.5,286046998.0,N
1505292535.4,286046994.3,N
1505292555.2,286046996.4,N
1505292575.0,286046994.4,N
1505292575.9,286046994.4,N
1505292595.8,286046997.0,N
1505292615.6,286047000.9,N
1505292635.4,286046999.5,N
1505292655.3,286046997.1,N
1505292675.1,286046998.7,N
1505292695.8,286046995.3,N
1505292715.7,286046996.4,N
1505292735.5,286047000.9,N
1505292755.3,286047000.8,N
1505292775.2,286047001.0,N
1505292795.9,286047004.1,N
1505292815.7,286047002.9,N
1505292835.5,286047002.8,N
1505292855.4,286046998.3,N
1505292875.2,286046999.4,N
1505292895.0,286046996.5,N
1505292895.9,286046996.5,N
1505292915.8,286046996.8,N
1505292935.6,286046997.4,N
1505292955.4,286046993.0,N
1505292975.3,286046993.6,N
1505292995.2,286046994.5,N
1505293015.0,286046995.8,N
1505293015.9,286046995.8,N
1505293035.7,286046997.9,N
1505293055.6,286046995.7,N
1505293075.4,286046997.2,N
1505293095.2,286047002.3,N
1505293115.1,286047003.4,N
1505293116.0,286047003.4,N
1505293135.8,286047003.2,N
1505293155.6,286047004.4,N
1505293175.5,286047001.7,N
1505293195.3,286046999.2,N
